Flag for U.S.A. Weather past 2 weeks in Omaha, Nebraska, U.S.A.

Now
87 °F

Sunny.


Feels Like: 94 °F
Forecast: 73 / 89 °F
Wind: 15 mph from Southeast

Location: Millard Airport

Current Time: Sep 4, 2015 at 2:55:00 PM

Latest Report: Sep 4, 2015 at 2:15 PM


Visibility: 10 mi

Pressure: 29.88 "Hg

Humidity: 60%

Dew point: 72 °F

Location of OmahaLocation

Historic Weather in Omaha — Graph

°F

Omaha temperature yesterday

Maximum temperature yesterday: 92 °F (at 4:15 PM)
Minimum temperature yesterday: 71 °F (at 6:15 AM)
Average temperature yesterday: 80 °F

Past Weeks' High & Low Weather Summary

 TemperatureHumidityPressure
High92 °F (Sep 3, 4:15 PM)98% (Aug 31, 6:35 AM)30.21 "Hg (Aug 31, 6:35 AM)
Low49 °F (Aug 24, 6:15 AM)37% (Aug 24, 1:55 PM)29.74 "Hg (Aug 22, 5:15 PM)
Average72 °F76%29.98 "Hg
* Reported Aug 20 1:15 PM — Sep 4 1:35 PM, Omaha, Weather by CustomWeather, © 2015

Note: Actual official high and low records may vary slightly from our data, if they occured in-between our weather recording intervals... More about our weather records

Advertising

Omaha weather history for previous 24 hours

 ConditionsComfort  
Time TempWeatherWind HumidityBarometerVisibility
1:35 PM
Fri, Sep 4
85 °FSunny.7 mph68%29.89 "Hg10 mi
1:15 PM83 °FSunny.8 mph67%29.90 "Hg10 mi
12:55 PM84 °FSunny.10 mph66%29.89 "Hg10 mi
12:15 PM82 °FSunny.6 mph68%29.90 "Hg10 mi
11:55 AM82 °FSunny.7 mph67%29.90 "Hg10 mi
11:35 AM80 °FSunny.8 mph72%29.89 "Hg10 mi
11:15 AM79 °FSunny.7 mph75%29.90 "Hg10 mi
10:55 AM78 °FSunny.9 mph76%29.91 "Hg10 mi
10:35 AM78 °FSunny.9 mph78%29.90 "Hg10 mi
10:15 AM77 °FSunny.7 mph81%29.91 "Hg10 mi
9:55 AM76 °FSunny.9 mph80%29.92 "Hg10 mi
9:35 AM76 °FSunny.9 mph81%29.93 "Hg10 mi
9:15 AM76 °FSunny.8 mph82%29.93 "Hg10 mi
8:55 AM74 °FSunny.7 mph84%29.94 "Hg10 mi
8:35 AM74 °FSunny.7 mph85%29.93 "Hg10 mi
8:15 AM74 °FSunny.7 mph85%29.93 "Hg10 mi
7:55 AM74 °FSunny.5 mph85%29.92 "Hg10 mi
7:35 AM74 °FPassing clouds.3 mph85%29.92 "Hg10 mi
7:15 AM74 °FPassing clouds.No wind85%29.92 "Hg10 mi
6:55 AM73 °FClear.No wind85%29.91 "Hg10 mi
6:35 AM74 °FClear.No wind84%29.90 "Hg10 mi
6:15 AM73 °FClear.No wind85%29.89 "Hg10 mi
5:55 AM73 °FClear.5 mph85%29.88 "Hg10 mi
5:35 AM74 °FThundershowers. Clear.6 mph84%29.86 "Hg10 mi
5:15 AM74 °FClear.7 mph84%29.85 "Hg10 mi
4:55 AM75 °FClear.8 mph80%29.86 "Hg10 mi
4:35 AM74 °FClear.5 mph82%29.86 "Hg10 mi
4:15 AM74 °FPassing clouds.5 mph84%29.86 "Hg10 mi
3:55 AM74 °FClear.6 mph84%29.86 "Hg10 mi
3:35 AM74 °FClear.7 mph85%29.86 "Hg10 mi
3:15 AM74 °FClear.6 mph84%29.86 "Hg10 mi
2:55 AM74 °FClear.6 mph83%29.86 "Hg10 mi
2:15 AM75 °FClear.6 mph81%29.86 "Hg10 mi
1:55 AM75 °FClear.6 mph79%29.86 "Hg10 mi
1:35 AM76 °FClear.6 mph78%29.86 "Hg10 mi
1:15 AM76 °FClear.8 mph77%29.86 "Hg10 mi
12:55 AM76 °FClear.7 mph78%29.86 "Hg10 mi
12:35 AM77 °FClear.7 mph78%29.85 "Hg10 mi
12:15 AM77 °FClear.7 mph76%29.85 "Hg10 mi
11:55 PM
Thu, Sep 3
77 °FClear.6 mph77%29.85 "Hg10 mi
11:35 PM77 °FClear.3 mph78%29.85 "Hg10 mi
10:55 PM78 °FClear.6 mph78%29.85 "Hg10 mi
10:35 PM79 °FClear.6 mph77%29.85 "Hg10 mi
10:15 PM79 °FClear.7 mph76%29.85 "Hg10 mi
9:55 PM79 °FClear.6 mph76%29.84 "Hg10 mi
9:35 PM80 °FClear.3 mph75%29.84 "Hg10 mi
9:15 PM80 °FClear.5 mph75%29.83 "Hg10 mi
8:55 PM81 °FClear.5 mph73%29.82 "Hg10 mi
8:15 PM83 °FSunny.8 mph68%29.79 "Hg10 mi
7:55 PM85 °FSunny.10 mph65%29.79 "Hg10 mi
7:35 PM85 °FSunny.9 mph66%29.79 "Hg10 mi
7:15 PM86 °FSunny.12 mph65%29.79 "Hg10 mi
6:55 PM87 °FSunny.10 mph61%29.79 "Hg10 mi
6:35 PM89 °FSunny.15 mph60%29.79 "Hg10 mi
6:15 PM90 °FSunny.9 mph60%29.79 "Hg10 mi
5:55 PM90 °FSunny.15 mph58%29.79 "Hg10 mi
5:15 PM92 °FSunny.12 mph55%29.79 "Hg10 mi
4:15 PM92 °FSunny.12 mph52%29.80 "Hg10 mi
3:55 PM92 °FSunny.15 mph54%29.81 "Hg10 mi
3:35 PM91 °FSunny.13 mph54%29.81 "Hg10 mi
3:15 PM91 °FSunny.14 mph55%29.82 "Hg10 mi
2:55 PM91 °FSunny.14 mph53%29.82 "Hg10 mi
2:35 PM90 °FSunny.12 mph55%29.83 "Hg10 mi
2:15 PM90 °FSunny.10 mph56%29.83 "Hg10 mi
Weather by CustomWeather, © 2015

See weather overviewHow to use our weather pages